Location: Unspecified
(0.0000°N, 0.0000°E)
Time: 23:17:46
(UTC+00:00)

Vanguard 2 - Pass Details

Date: 02 October 2020
Orbit: 554 x 2937 km, 32.9° (Epoch: 28 October)

Event Time Altitude Azimuth Distance (km) Brightness Sun altitude
Rises 12:07:28 0° 303° (WNW) 2,844 10.5 84.0°
Reaches altitude 10° 12:09:25 10° 302° (WNW) 2,055 9.9 83.6°
Maximum altitude 12:14:02 82° 214° (SW) 837 11.4 82.7°
Drops below altitude 10° 12:21:15 10° 127° (SE) 3,147 10.8 81.1°
Sets 12:24:54 0° 126° (SE) 4,509 11.4 80.3°
